Content
SEND FEEDBACK

Daily
Averages
Monthly
Summary
Brazil

MANAUS, AMAZONAS


Home > South America > Brazil > Amazonas
Elevation: 276 feet     Latitude: 03 09S     Longitude: 059 59W

WEATHER
 
SELECT A DAY
Number of Records: 111,367;   Date Range: 6/30/96 - 10/23/14
 
SHARE

PRINT THIS DATA

[ ← Previous Day ]
WEATHER ALMANAC - JANUARY 3, 2013
[ Next Day → ]
[ °C ]   °F
Weather ElementAverageHighLow
Temperature78.1 °F84.2 °F (3:00 pm)75 °F (2:00 am)
Dewpoint72.5 °F75.2 °F (10:00 am)71.6 °F (10:12 am)
Humidity82.7 %94 % (1:00 am)63 % (2:00 pm)
Barometer27.82 in29.95 in (9:00 am) (7:00 pm)
Wind Speed5.6 mph11.5 mph (10:12 am)
Wind Gust23 mph (10:12 am)
Weather ElementAverage
Visibility6.5 mi
Wind DirectionSE (137.2 °)

Weather ElementTotal
Precipitation---
Cooling Degree Days14.6 (Base 65)
Growing Degree Days29.6 (Base 50)
Averaged from 29 records on January 3, 2013
WEATHER CONDITIONS BREAKOUT
WIND DIRECTION BREAKOUT
WEATHER BY HOUR - JANUARY 3, 2013
[ °C ]   °F
Local TimeTemperatureDewpointHumidityBarometerVisibilityWind DirectionWind SpeedGust SpeedPrecipitationEventsConditions
1:00 AM75.2 °F73.4 °F94 %29.89 in6.2 miWest (280°)2.3 mphMostly Cloudy
2:00 AM75.0 °F73.0 °F91 %29.87 in9.0 miWest (270°)2.3 mphMist
2:00 AM75.2 °F73.4 °F94 %29.86 in6.2 miWest (270°)2.3 mphMostly Cloudy
3:00 AM75.2 °F73.4 °F94 %29.86 in6.2 miSW (230°)2.3 mphMostly Cloudy
4:00 AM75.2 °F73.4 °F94 %29.86 in6.2 miNNW (340°)2.3 mphMostly Cloudy
5:00 AM75.2 °F73.4 °F94 %29.86 in6.2 miWSW (250°)3.5 mphMostly Cloudy
6:00 AM75.2 °F73.4 °F94 %29.89 in6.2 miWSW (250°)2.3 mphMostly Cloudy
7:00 AM77.0 °F73.4 °F89 %29.92 in6.2 miSouth (180°)2.3 mphMostly Cloudy
8:00 AM80.0 °F73.0 °F75 %29.93 in12.0 miESE (110°)2.3 mphMostly Cloudy
8:00 AM80.6 °F73.4 °F79 %29.92 in6.2 miESE (110°)2.3 mphMostly Cloudy
9:00 AM78.8 °F73.4 °F83 %29.95 in6.2 miNNW (330°)4.6 mphMostly Cloudy
10:00 AM78.8 °F75.2 °F89 %29.95 in3.7 miNorth (350°)6.9 mphRainLight Rain
10:12 AM75.2 °F71.6 °F89 %1.9 miNorth (10°)11.5 mph23.0 mphRainRain
11:00 AM75.2 °F71.6 °F89 %1.9 miNNE (20°)8.1 mphRainLight Rain
11:42 AM77.0 °F73.4 °F89 %29.92 in5.0 miNorth (10°)5.8 mphRainLight Rain
12:00 PM77.0 °F71.6 °F83 %29.92 in6.2 miNNE (20°)9.2 mphMostly Cloudy
1:00 PM80.6 °F73.4 °F79 %29.89 in6.2 miNNE (30°)8.1 mphMostly Cloudy
2:00 PM83.0 °F72.0 °F63 %29.86 in12.0 miNNE (20°)10.4 mphPartly Cloudy
2:00 PM82.4 °F71.6 °F70 %29.86 in6.2 miNNE (20°)10.4 mphScattered Clouds
3:00 PM84.2 °F71.6 °F66 %29.83 in6.2 miNNE (20°)10.4 mphScattered Clouds
4:00 PM82.4 °F71.6 °F70 %29.80 in6.2 miNorth (360°)10.4 mphScattered Clouds
5:00 PM82.4 °F71.6 °F70 %29.80 in6.2 miNNE (20°)8.1 mphScattered Clouds
6:00 PM78.8 °F71.6 °F78 %29.83 in6.2 miNNE (20°)8.1 mphScattered Clouds
7:00 PM78.8 °F71.6 °F78 %29.86 in6.2 miNNE (20°)6.9 mphScattered Clouds
8:00 PM78.0 °F72.0 °F77 %29.88 in12.0 miNNE (30°)4.6 mphScattered Clouds
8:00 PM78.8 °F71.6 °F78 %29.89 in6.2 miNNE (30°)4.6 mphMostly Cloudy
9:00 PM77.0 °F71.6 °F83 %29.89 in6.2 miNorth (10°)4.6 mphMostly Cloudy
10:00 PM77.0 °F71.6 °F83 %29.92 inNNE (20°)2.3 mphClear
11:00 PM77.0 °F71.6 °F83 %29.92 inNorth (350°)2.3 mphClear
Hourly data recorded from SBMN, located miles away from Manaus, Amazonas







STORIES FROM OUR PARTNERS